Regional Weather Roundup
Issued by NWS

Home | Current Version | Previous Version | Graphics & Text | Print | Product List | Glossary Off
Versions: 1 2 3 4 5 6 7 8 9 10 11 12 13 14 15 16 17 18 19 20 21 22 23 24 25 26 27 28 29 30 31 32 33 34 35 36 37 38 39 40 41 42 43 44 45 46 47 48 49 50

000
ASUS43 KDMX 221601
RWRIA

WEATHER ROUNDUP FOR IOWA
NATIONAL WEATHER SERVICE DES MOINES IA
1000 AM CST WED NOV 22 2017

NOTE: "FAIR" INDICATES FEW OR NO CLOUDS BELOW 12,000 FEET WITH NO
SIGNIFICANT WEATHER AND/OR OBSTRUCTIONS TO VISIBILITY.

* - THESE STATIONS ARE NOT NWS STATIONS...THUS NOT UNDER NWS
QUALITY CONTROL.  THEY ALSO DO NOT REPORT WEATHER SUCH
AS PRECIPITATION OR FOG.

IAZ001>003-012>014-020>022-031>034-043>046-221700-
   NORTHWEST IOWA

CITY           SKY/WX    TMP DP  RH WIND       PRES   REMARKS
CARROLL *      SUNNY     25  12  58 S14       30.34F WCI  13
CHEROKEE *     SUNNY     25  14  64 S13       30.31F WCI  13
DENISON *      SUNNY     25  14  63 S14       30.36S WCI  13
LE MARS *      SUNNY     25  12  58 S16       30.28F WCI  12
ORANGE CITY *  SUNNY     25  16  68 S14       30.25F WCI  13
SHELDON *      CLOUDY    25  10  54 S16       30.24F WCI  12
SIOUX CITY     SUNNY     25  14  63 S10       30.32F WCI  15
SPENCER        CLOUDY    24  12  60 S14       30.30F WCI  12
STORM LAKE *   MIX PCPN  25  12  58 S16       30.31R WCI  12
$$

IAZ055>058-069>071-079>083-090>094-221700-
   SOUTHWEST IOWA

CITY           SKY/WX    TMP DP  RH WIND       PRES   REMARKS
ATLANTIC *     SUNNY     25  16  68 S9        30.37F WCI  15
AUDUBON *      SUNNY     25  16  68 S10       30.35F WCI  15
CLARINDA *     SUNNY     27  16  63 S9        30.42F WCI  17
COUNCIL BLFS * SUNNY     27  16  63 SW10      30.37S WCI  17
CRESTON *      SUNNY     25  16  68 S8        30.38F WCI  16
HARLAN  *      SUNNY     25  16  68 S14       30.39F WCI  13
RED OAK *      SUNNY     25  16  68 S8        30.40S WCI  16
SHENANDOAH *   SUNNY     28  16  59 S10       30.41F WCI  19
$$

IAZ047>049-059>061-072>074-084-221700-
   CENTRAL IOWA

CITY           SKY/WX    TMP DP  RH WIND       PRES   REMARKS
AMES           SUNNY     24  15  68 S8        30.38F WCI  15
ANKENY *       SUNNY     25  14  63 S6        30.40F WCI  18
BOONE *        SUNNY     25  14  63 S8        30.35F WCI  16
CHARITON *     SUNNY     25  14  63 SW6       30.40S WCI  18
DES MOINES     MOSUNNY   25  13  60 S6        30.39F WCI  18
GRINNELL*      SUNNY     24  15  70 CALM      30.40S
KNOXVILLE *    SUNNY     25  12  58 VRB3      30.39F
MARSHALLTOWN   SUNNY     23  15  71 S6        30.38S WCI  16
NEWTON *       SUNNY     25  14  63 SW7       30.40S WCI  17
PELLA *        SUNNY     26  15  60 S3        30.42F
PERRY *          N/A     25  14  64 S9        30.37F WCI  15
$$

IAZ004>006-015-016-023>025-035-036-221700-
   NORTH CENTRAL IOWA

CITY           SKY/WX    TMP DP  RH WIND       PRES   REMARKS
ALGONA *       CLOUDY    23  16  74 S13       30.31F WCI  11
CLARION *      SUNNY     23  18  80 S9        30.33F WCI  13
ESTHERVILLE    SUNNY     21  13  71 S12       30.30S WCI   9
FORT DODGE *   SUNNY     23  14  68 S9        30.34  WCI  13
MASON CITY     SUNNY     22  14  71 S9        30.33F WCI  12
FOREST CITY *    N/A     25  18  74 S10       30.31F WCI  15
WEBSTER CITY * SUNNY     23  12  63 S10       30.33F WCI  12
IOWA FALLS *     N/A     23  15  72 S6        30.36F WCI  16
$$

IAZ007>011-017>019-026>030-037>042-050>054-066-221700-
   NORTHEAST IOWA

CITY           SKY/WX    TMP DP  RH WIND       PRES   REMARKS
CEDAR RAPIDS   SUNNY     24  16  71 CALM      30.39R
CHARLES CITY * SUNNY     21  14  73 S5        30.35F WCI  15
CLINTON *      SUNNY     29  20  69 SW3       30.40R
DECORAH *      SUNNY     21  14  73 SW5       30.34S WCI  15
DUBUQUE        SUNNY     24  15  68 VRB3      30.36S
MONTICELLO *   SUNNY     25  16  68 W5        30.38F WCI  19
OELWEIN *      SUNNY     21  16  79 W3        30.37S
WATERLOO       SUNNY     22  13  68 S3        30.37F
$$

IAZ064-065-067-068-078-221700-
   EAST CENTRAL IOWA

CITY           SKY/WX    TMP DP  RH WIND       PRES   REMARKS
DAVENPORT      SUNNY     25  17  72 NW6       30.42R WCI  18
IOWA CITY      SUNNY     26  15  63 CALM      30.42S
MT. PLEASANT * SUNNY     27  15  61 CALM      30.42R
MUSCATINE *    SUNNY     27  16  63 CALM      30.43R
QUAD CITIES    SUNNY     28  15  58 NW3       30.41R
$$

IAZ062-063-075>077-085>089-095>099-221700-
   SOUTHEAST IOWA

CITY           SKY/WX    TMP DP  RH WIND       PRES   REMARKS
BURLINGTON     SUNNY     27  17  66 CALM      30.41R
FAIRFIELD *    SUNNY     25  14  63 CALM      30.40F
FORT MADISON * SUNNY     27  18  69 CALM      30.42S
KEOKUK *       SUNNY     27  16  63 VRB5      30.42R WCI  21
OSKALOOSA *      N/A     25  15  68 CALM      30.41S
OTTUMWA        SUNNY     25  15  66 S5        30.40F WCI  19
WASHINGTON *   SUNNY     25  18  74 CALM      30.42S
$$

ABBREVIATIONS USED IN REMARKS
   TC - TEMPERATURES IN CELSIUS
  WCI - WIND CHILL INDEX
   HX - HEAT INDEX
  VSB - VISIBILITY
$$





USA.gov is the U.S. government's official web portal to all federal, state and local government web resources and services.